Temperature
26 25 24 25 25 26 26 25 25 25 26 25 24 24 24 24 24 24 23 23 22 21 21 20 20 19 19 19 18 18 18 18 17 17 17 17 16 16 16 16 16 16 16 15
25 25 26 27 26 26 26 25 25 25 26 25 25 25 25 25 24 24 24 23 22 22 21 20 20 19 19 19 18 18 18 17 17 17 17 16 16 16 16 16 16 16 16 15
25 26 27 26 26 26 26 25 25 25 25 26 25 24 24 25 24 24 24 23 23 22 21 20 20 19 19 18 18 18 17 17 17 17 17 16 16 16 16 16 16 15 15 15
26 26 26 26 26 26 25 26 26 25 24 24 25 22 23 24 24 24 23 23 22 22 21 20 19 19 18 18 18 18 17 17 17 17 16 16 16 16 16 16 15 15 15 15
25 26 26 25 26 26 25 26 26 25 24 24 25 24 24 24 23 23 23 23 22 22 21 20 19 19 18 18 18 17 17 17 17 16 16 16 16 16 15 15 15 15 15 15
26 26 26 26 26 26 26 26 26 25 24 23 25 24 23 23 24 24 24 23 22 22 21 20 19 18 18 17 17 17 17 17 16 16 16 16 15 15 15 15 15 15 15 14
25 26 26 26 25 26 26 24 23 23 22 23 26 25 23 24 25 24 24 23 22 22 21 20 19 18 18 17 17 17 16 16 16 16 15 15 15 15 15 15 14 14 14 14
24 24 25 26 25 25 25 25 23 22 23 24 25 24 23 25 25 24 24 23 22 21 20 19 19 18 17 17 16 16 16 16 16 15 15 15 15 15 15 14 14 14 14 14
24 24 26 26 26 25 25 25 25 24 24 23 24 24 23 24 24 24 23 22 22 21 20 19 18 18 17 16 16 16 16 16 15 15 15 15 15 15 14 14 14 14 14 14
24 23 25 26 25 25 25 25 24 23 22 22 23 23 22 22 23 23 23 22 21 21 20 19 18 17 17 16 16 16 15 15 15 15 15 15 15 14 14 14 14 14 14 14
24 23 24 25 24 24 25 25 24 23 23 22 22 22 24 23 23 23 23 22 21 20 20 19 18 17 17 16 16 16 15 15 15 15 14 14 14 14 14 14 14 14 14 14
24 23 23 24 25 25 24 24 24 22 22 23 22 22 24 24 24 23 23 22 21 20 19 19 18 17 16 16 16 15 15 15 14 14 14 14 14 14 14 14 14 14 14 14
22 22 22 22 23 24 24 24 24 24 22 22 21 22 24 24 23 23 22 21 21 20 19 18 17 17 16 16 15 15 15 15 14 14 14 14 14 13 13 13 13 13 13 13
21 21 22 21 22 23 23 23 24 23 22 22 22 22 22 22 22 22 21 21 20 19 18 18 17 16 16 16 15 15 14 14 14 14 13 13 13 13 13 13 13 13 13 13
22 21 22 23 23 23 23 23 23 23 23 22 22 22 22 22 22 21 21 20 19 19 18 17 17 16 16 15 15 15 14 14 14 13 13 13 13 13 13 13 13 12 12 12
22 21 22 22 23 23 22 22 22 22 22 22 22 22 23 22 22 21 20 20 19 18 18 17 16 16 16 15 15 14 14 13 13 13 13 13 13 12 12 12 12 12 12 12
21 21 20 20 22 22 21 22 22 22 22 22 21 21 22 21 21 20 20 19 18 18 17 16 16 16 15 15 15 14 13 13 13 13 13 12 12 12 12 12 12 12 11 11
20 20 20 20 20 19 21 23 22 22 22 22 22 21 21 21 20 19 19 18 17 17 16 16 15 15 15 15 14 14 13 13 13 12 12 12 12 12 12 11 11 11 11 11
21 20 19 19 19 20 21 22 22 21 21 22 21 21 21 20 20 19 18 17 17 16 16 15 15 15 14 14 14 14 13 13 12 12 12 12 12 11 11 11 11 11 11 11
20 20 19 18 18 19 20 21 21 21 19 20 20 20 20 19 18 17 17 17 16 16 15 15 15 14 14 14 13 13 13 12 12 12 12 11 11 11 11 11 11 10 10 10
18 18 18 18 18 19 20 20 20 19 18 19 20 19 19 18 17 17 17 16 16 15 15 14 14 14 13 13 13 13 12 12 12 11 11 11 11 11 10 10 10 10 10 10
18 18 18 18 17 17 19 19 19 18 19 19 18 18 18 17 17 16 16 15 15 15 14 14 14 13 13 13 13 12 12 12 11 11 11 11 11 10 10 10 10 10 10 10
18 18 17 17 17 18 18 18 18 18 18 18 18 17 17 16 16 16 15 15 14 14 14 13 13 13 13 12 12 12 12 11 11 11 11 11 10 10 10 10 10 9 9 9
18 18 17 17 17 17 17 17 17 17 17 17 16 16 16 15 15 15 14 14 14 13 13 13 13 12 12 12 12 11 11 11 11 11 10 10 10 10 10 9 9 9 9 9
16 17 16 16 17 17 17 16 16 16 16 16 15 15 15 14 14 14 14 14 13 13 13 12 12 12 11 11 11 11 11 11 10 10 10 10 10 10 9 9 9 9 9 9
16 16 15 15 16 16 16 16 16 15 15 15 15 14 14 14 14 14 13 13 13 12 12 12 12 11 11 11 11 11 10 10 10 10 10 9 9 9 9 9 9 8 8 8
Wind_Speed
7 6 5 5 6 6 5 5 3 2 2 3 4 5 6 7 6 5 5 6 6 7 7 7 6 5 4 4 5 4 4 4 3 2 2 2 2 2 1 2 3 3 4 5
6 7 6 6 5 6 7 6 4 2 3 3 4 5 6 7 7 6 5 6 6 7 8 7 6 6 4 3 4 4 4 4 4 2 1 2 2 1 1 2 2 2 3 4
7 5 4 5 5 6 7 6 4 3 3 6 5 4 6 7 7 5 4 4 5 6 8 7 6 6 4 4 3 3 3 4 4 3 2 2 2 1 1 1 1 1 3 3
6 5 5 6 6 7 6 4 5 6 5 4 5 4 6 8 7 7 6 5 5 5 6 6 6 5 4 3 2 2 3 2 3 3 3 2 1 1 1 2 1 1 2 2
4 4 6 6 6 6 5 5 7 8 7 6 7 6 5 9 7 7 7 6 6 6 6 7 7 6 5 3 2 1 2 2 2 2 3 2 1 1 1 2 2 1 0 1
7 5 5 5 6 6 5 8 10 10 7 8 8 5 2 4 5 6 6 6 6 6 7 7 6 6 5 3 2 1 2 2 1 1 3 2 2 1 2 1 2 1 1 1
9 8 6 5 6 5 6 6 4 4 5 5 3 2 3 4 5 5 6 5 6 6 6 7 6 5 4 4 2 2 1 1 1 1 1 2 2 2 2 1 1 1 1 1
7 6 7 6 6 5 7 7 4 4 4 3 3 2 5 7 6 5 6 6 6 5 5 7 6 6 5 4 3 1 1 1 2 1 0 1 1 2 1 1 1 1 1 1
6 3 3 4 5 6 6 5 6 6 9 6 3 3 5 6 5 6 5 6 6 5 5 6 6 6 5 4 3 2 2 2 2 1 1 1 1 1 1 1 1 1 1 1
7 6 4 4 6 8 7 6 4 4 4 5 3 2 3 5 5 5 5 5 5 5 5 6 6 5 5 4 3 2 2 2 2 2 1 1 1 2 1 1 1 0 0 1
8 8 6 6 7 6 7 7 5 4 5 4 3 1 3 4 5 5 4 5 4 4 5 5 6 5 5 4 3 3 2 2 2 1 1 1 1 2 2 1 1 1 0 1
4 6 8 6 3 4 6 7 6 5 5 5 4 0 3 4 5 4 3 3 4 4 5 5 6 5 4 4 3 2 2 2 2 1 0 1 1 2 1 1 0 1 1 0
5 5 6 4 5 7 7 7 7 6 6 6 5 1 2 4 4 4 3 3 4 4 5 5 5 5 4 4 3 2 2 2 2 2 1 1 2 2 1 1 1 1 0 1
3 7 9 7 6 4 7 7 7 8 6 7 6 3 1 2 2 3 3 3 3 4 5 5 4 4 3 3 3 2 2 2 2 2 1 1 2 1 1 2 2 2 1 1
5 9 11 11 10 9 9 10 9 10 9 8 7 5 3 1 1 2 3 2 3 3 4 4 4 4 4 3 3 2 2 2 2 2 2 1 1 2 2 2 2 2 2 2
6 9 11 11 10 10 11 11 11 10 10 10 9 7 3 1 2 1 2 3 3 3 3 3 3 3 3 3 2 2 2 2 2 2 1 1 2 2 1 1 1 1 1 1
6 9 9 10 10 10 11 9 8 8 8 8 8 4 2 1 1 2 2 3 2 2 3 3 1 1 1 2 3 3 2 2 2 2 2 2 2 2 2 1 1 1 1 1
9 10 6 8 9 10 4 0 1 4 5 5 4 2 2 1 2 2 3 3 2 2 2 1 1 1 1 1 2 3 2 2 2 2 2 1 1 1 2 2 2 2 1 1
9 8 6 6 9 9 5 2 2 3 4 3 3 2 2 2 0 2 4 4 3 3 2 1 1 1 0 1 2 2 2 2 2 2 2 1 1 1 1 2 2 2 1 2
8 8 7 8 9 7 1 2 2 2 3 2 2 1 1 1 1 1 3 3 3 3 2 1 1 1 1 1 1 2 2 2 2 2 2 2 2 2 1 2 1 1 1 2
7 8 10 11 10 5 2 2 1 3 1 3 3 2 1 1 1 1 3 3 3 2 2 1 1 1 1 1 1 1 1 1 1 2 2 2 1 2 1 1 1 1 1 1
6 5 7 8 9 6 1 2 1 2 3 3 3 3 3 3 2 2 2 2 2 2 1 1 1 1 1 0 1 1 1 1 1 1 2 1 1 1 1 1 1 1 1 2
5 4 3 3 3 2 1 2 3 4 4 4 3 3 3 3 1 1 1 1 1 1 0 0 0 0 0 0 1 1 1 1 1 2 2 2 1 1 1 1 1 1 1 1
5 5 6 6 4 4 3 3 3 3 4 4 4 3 2 2 2 1 0 1 0 1 0 0 0 0 1 1 1 1 1 1 1 2 2 2 1 1 1 1 1 0 0 1
6 6 8 9 7 6 4 3 4 4 3 4 3 2 3 3 3 2 1 1 1 1 0 1 1 1 2 2 1 1 1 1 2 2 2 2 1 1 0 0 0 0 0 1
9 9 9 8 7 7 6 4 4 4 4 4 3 3 3 3 3 3 2 1 1 1 1 1 1 1 2 1 1 1 1 1 2 2 2 1 1 1 1 1 1 2 1 1
Wind_Direction
218 224 234 236 239 268 285 285 274 229 186 219 228 207 180 177 180 179 176 165 162 159 153 141 142 135 130 124 117 118 114 111 110 100 101 108 106 97 90 87 65 52 55 65
226 232 244 253 246 256 265 273 274 258 187 227 235 223 187 173 177 182 177 164 160 152 142 145 142 127 124 119 116 125 127 126 129 124 122 137 130 126 107 79 74 56 59 72
233 248 243 252 260 266 257 266 269 277 267 245 229 230 201 169 165 167 169 147 137 152 148 148 139 131 135 128 131 136 136 142 136 124 101 90 90 112 114 104 94 63 69 74
241 248 249 246 255 270 265 269 272 262 250 248 225 238 195 177 175 172 172 163 148 145 138 140 134 128 126 115 115 123 130 128 124 128 125 134 158 178 173 144 127 101 73 85
239 237 249 254 262 273 283 281 268 264 263 264 242 244 190 172 177 173 169 159 151 147 133 135 138 133 127 112 102 102 121 116 119 140 144 142 142 156 110 108 121 126 135 79
246 240 247 264 267 264 275 269 258 250 251 253 241 230 160 182 161 159 156 156 150 147 137 135 133 125 119 117 113 88 94 95 125 148 140 147 161 151 130 138 156 173 153 157
231 221 223 245 258 245 253 270 263 236 226 237 229 212 132 118 116 140 153 155 147 139 135 136 130 128 126 127 127 123 109 104 95 92 144 161 157 154 161 167 154 146 147 152
257 226 207 222 242 257 258 260 273 283 284 287 239 180 117 108 105 116 132 137 132 136 136 135 134 133 132 129 130 121 102 98 104 103 68 108 149 144 140 157 142 150 163 176
287 259 178 198 235 257 267 264 275 282 288 284 235 134 124 112 123 131 129 130 134 137 140 136 135 136 138 141 140 137 119 125 119 109 87 84 88 110 124 130 112 156 190 166
288 281 243 205 224 228 255 279 287 279 288 281 271 191 155 154 147 145 145 139 141 143 142 138 137 142 141 133 129 120 107 99 110 110 143 157 138 125 144 149 142 78 41 82
282 274 245 220 225 241 233 244 251 264 268 280 295 9 85 128 134 148 151 145 142 143 140 140 139 140 130 124 128 131 124 113 110 120 153 168 144 134 131 142 149 128 67 43
292 288 267 237 223 231 255 263 268 267 277 281 280 319 85 93 116 114 118 123 124 124 128 130 131 129 133 137 132 132 126 115 110 105 57 47 86 91 109 112 103 121 153 142
325 282 277 225 214 215 236 244 262 273 273 270 270 210 100 75 85 104 108 105 113 119 121 121 126 141 145 141 138 143 130 127 127 126 116 81 87 78 67 61 48 25 40 82
284 268 270 275 293 280 256 260 264 268 262 267 270 267 287 53 61 78 91 91 109 121 125 128 130 134 134 141 141 141 150 144 137 134 144 120 109 101 76 61 43 15 9 38
253 267 275 277 280 283 276 270 267 267 270 272 278 279 277 310 65 88 109 107 97 116 127 137 146 145 137 139 142 136 140 136 122 117 120 119 112 88 70 58 40 13 4 8
246 269 278 277 271 271 269 265 259 259 269 273 276 282 307 33 77 105 107 107 111 119 125 119 123 132 146 155 146 134 132 127 127 132 132 122 119 116 120 121 97 30 357 335
259 262 276 278 279 272 258 249 247 249 258 266 273 287 318 339 46 64 74 85 85 96 102 108 117 127 158 157 150 143 152 152 151 142 138 134 141 150 160 159 145 262 257 279
265 272 273 276 279 259 254 130 265 264 264 276 285 300 324 53 77 77 83 91 84 85 95 97 90 104 143 132 143 142 139 148 156 150 146 136 145 152 163 177 201 234 246 239
254 262 268 266 265 264 257 244 256 264 272 297 295 321 10 27 121 91 68 64 73 71 72 92 56 42 94 144 142 140 149 158 153 154 163 160 150 172 192 205 221 233 237 243
240 247 250 259 264 264 256 38 353 283 259 2 347 355 27 34 253 143 77 73 69 61 53 59 52 30 25 82 125 150 164 159 166 172 176 170 169 177 209 216 240 257 235 234
224 232 237 250 258 265 333 346 305 243 314 28 357 357 354 277 339 88 82 80 80 69 45 48 56 55 24 80 142 171 175 187 185 181 167 170 182 176 187 222 254 256 236 233
258 248 242 243 247 248 360 314 270 356 8 2 1 8 19 21 44 62 68 69 83 80 62 83 91 56 26 108 164 188 203 181 140 158 167 171 183 196 193 193 257 259 221 229
260 269 279 271 261 351 5 348 353 348 333 340 347 13 24 359 349 39 68 54 60 95 91 110 120 92 22 52 197 224 230 155 158 159 178 188 194 182 169 189 246 264 219 210
276 290 275 271 268 276 284 302 312 322 316 328 347 355 339 313 309 286 230 223 269 251 194 319 206 211 267 256 276 243 226 190 189 189 185 190 197 198 190 183 201 233 271 215
288 290 284 276 273 283 277 296 304 310 314 327 338 328 326 316 306 285 259 235 240 282 245 223 219 224 250 250 243 220 196 187 207 202 193 194 189 166 151 5 304 229 243 214
265 266 266 272 278 275 276 280 308 307 300 301 305 307 302 291 289 285 269 254 253 253 278 283 268 252 259 250 218 187 194 204 215 223 209 190 182 180 181 166 9 358 281 228
Height
1495 1498 1500 1498 1496 1496 1496 1499 1501 1498 1495 1498 1501 1502 1502 1503 1505 1507 1509 1510 1513 1515 1517 1519 1521 1522 1524 1525 1526 1527 1528 1529 1529 1530 1531 1531 1531 1532 1532 1533 1533 1533 1533 1533
1495 1498 1493 1492 1492 1494 1495 1499 1500 1496 1493 1496 1500 1500 1498 1500 1502 1505 1506 1508 1511 1513 1515 1518 1520 1521 1523 1524 1526 1527 1528 1528 1529 1529 1530 1531 1531 1531 1532 1532 1532 1533 1533 1533
1495 1493 1490 1491 1493 1495 1495 1498 1498 1499 1496 1493 1498 1503 1499 1497 1500 1503 1505 1507 1509 1511 1514 1516 1518 1520 1521 1523 1524 1525 1527 1527 1528 1528 1529 1530 1530 1530 1530 1531 1531 1532 1532 1532
1490 1489 1490 1492 1493 1494 1498 1492 1493 1495 1501 1502 1499 1513 1501 1496 1499 1501 1504 1506 1508 1511 1512 1515 1517 1518 1520 1522 1523 1524 1525 1526 1527 1527 1527 1528 1528 1529 1529 1530 1530 1531 1531 1531
1491 1489 1490 1493 1492 1491 1493 1490 1491 1493 1497 1501 1497 1505 1500 1494 1498 1499 1501 1504 1507 1509 1511 1514 1515 1517 1519 1520 1522 1523 1524 1525 1525 1526 1526 1526 1527 1527 1528 1528 1529 1529 1530 1530
1487 1487 1488 1489 1488 1489 1489 1490 1490 1490 1496 1509 1495 1500 1505 1495 1494 1496 1499 1503 1505 1508 1510 1513 1515 1516 1518 1519 1521 1522 1522 1523 1523 1524 1524 1524 1525 1525 1526 1526 1527 1528 1528 1529
1489 1486 1486 1487 1489 1488 1489 1498 1508 1511 1512 1505 1487 1494 1500 1490 1489 1493 1498 1501 1504 1507 1509 1512 1513 1515 1517 1518 1519 1520 1521 1521 1522 1522 1522 1523 1523 1523 1524 1525 1525 1526 1526 1527
1494 1493 1485 1486 1489 1492 1490 1494 1511 1520 1513 1501 1489 1495 1495 1487 1489 1493 1496 1500 1503 1506 1508 1510 1512 1514 1515 1517 1518 1518 1519 1519 1520 1520 1520 1521 1521 1522 1522 1523 1524 1524 1525 1525
1493 1492 1482 1483 1485 1487 1491 1492 1489 1500 1500 1504 1496 1493 1491 1488 1490 1493 1496 1499 1502 1505 1507 1509 1511 1513 1514 1516 1516 1517 1517 1518 1518 1518 1519 1519 1520 1520 1521 1521 1522 1523 1523 1524
1489 1494 1485 1483 1485 1485 1487 1488 1493 1501 1511 1514 1502 1498 1500 1494 1493 1493 1496 1499 1502 1504 1506 1508 1510 1512 1513 1514 1515 1516 1516 1516 1516 1517 1517 1518 1518 1519 1519 1520 1520 1521 1522 1522
1488 1493 1489 1485 1487 1488 1488 1490 1491 1496 1498 1511 1515 1508 1487 1489 1490 1492 1494 1497 1500 1502 1505 1507 1508 1510 1512 1513 1514 1515 1515 1515 1515 1516 1516 1516 1517 1517 1518 1518 1519 1519 1520 1521
1490 1492 1492 1485 1481 1482 1485 1487 1491 1503 1503 1499 1507 1507 1485 1486 1488 1491 1494 1497 1499 1501 1503 1505 1507 1509 1511 1512 1513 1513 1514 1514 1514 1514 1515 1515 1515 1516 1516 1517 1518 1518 1518 1519
1494 1496 1500 1496 1493 1486 1486 1484 1486 1490 1496 1501 1507 1506 1486 1487 1489 1491 1494 1496 1499 1501 1502 1504 1506 1508 1509 1510 1511 1512 1512 1512 1512 1513 1513 1514 1514 1514 1515 1515 1516 1516 1517 1517
1497 1496 1499 1503 1495 1488 1489 1487 1486 1491 1499 1500 1498 1496 1490 1489 1490 1492 1494 1496 1498 1500 1501 1503 1505 1506 1508 1509 1510 1510 1511 1511 1511 1511 1511 1512 1512 1513 1513 1513 1514 1514 1514 1515
1494 1496 1491 1487 1484 1484 1487 1487 1486 1489 1490 1495 1493 1491 1490 1488 1490 1492 1494 1496 1498 1499 1501 1502 1504 1505 1506 1507 1508 1508 1509 1509 1509 1509 1510 1510 1511 1511 1511 1512 1512 1512 1512 1513
1492 1494 1491 1489 1484 1484 1485 1484 1484 1486 1487 1488 1488 1489 1485 1487 1489 1491 1494 1495 1497 1499 1500 1502 1503 1504 1505 1505 1506 1506 1507 1507 1507 1508 1508 1508 1509 1509 1509 1509 1510 1510 1510 1511
1491 1492 1495 1494 1484 1484 1489 1481 1482 1483 1483 1485 1489 1489 1486 1487 1489 1491 1494 1495 1497 1498 1500 1501 1502 1503 1503 1504 1504 1504 1505 1505 1506 1506 1506 1507 1507 1507 1507 1508 1508 1508 1508 1509
1491 1492 1493 1494 1493 1500 1485 1475 1477 1480 1481 1481 1483 1484 1485 1487 1490 1491 1493 1495 1496 1498 1499 1500 1500 1501 1502 1502 1502 1503 1503 1503 1503 1504 1504 1504 1504 1505 1505 1505 1505 1506 1506 1506
1488 1491 1495 1496 1497 1490 1482 1477 1478 1481 1483 1481 1483 1484 1486 1487 1489 1491 1493 1495 1496 1497 1498 1498 1499 1499 1500 1500 1500 1501 1501 1501 1501 1501 1502 1502 1502 1502 1502 1503 1503 1503 1504 1504
1486 1488 1494 1495 1498 1496 1485 1478 1478 1481 1487 1483 1483 1484 1486 1487 1491 1493 1493 1494 1495 1496 1497 1497 1497 1498 1498 1498 1498 1498 1499 1499 1499 1499 1499 1500 1500 1500 1500 1500 1501 1501 1501 1501
1489 1490 1493 1494 1495 1487 1482 1479 1480 1491 1491 1484 1484 1485 1486 1488 1490 1492 1492 1493 1494 1495 1495 1496 1496 1496 1496 1496 1496 1496 1496 1496 1496 1497 1497 1497 1497 1497 1498 1498 1498 1498 1498 1498
1488 1489 1490 1490 1494 1493 1483 1481 1484 1486 1484 1484 1485 1486 1487 1487 1489 1490 1491 1492 1492 1493 1494 1494 1494 1494 1494 1494 1494 1494 1494 1494 1494 1494 1494 1494 1495 1495 1495 1495 1495 1495 1496 1496
1483 1485 1485 1486 1489 1484 1482 1483 1484 1484 1485 1484 1485 1485 1486 1487 1488 1489 1490 1490 1491 1491 1492 1492 1492 1491 1492 1492 1492 1491 1491 1491 1491 1492 1492 1492 1493 1493 1493 1493 1493 1493 1493 1493
1482 1482 1482 1483 1482 1482 1482 1482 1483 1484 1484 1484 1484 1485 1485 1486 1487 1487 1488 1489 1489 1489 1489 1489 1489 1489 1489 1489 1489 1489 1489 1489 1489 1489 1490 1490 1490 1490 1491 1491 1491 1490 1490 1490
1483 1483 1483 1482 1481 1481 1481 1481 1482 1482 1483 1483 1483 1484 1484 1484 1485 1485 1486 1486 1487 1487 1487 1487 1486 1486 1486 1486 1486 1486 1486 1486 1486 1487 1487 1488 1488 1488 1488 1488 1488 1488 1487 1488
1483 1483 1483 1481 1479 1479 1478 1479 1480 1481 1481 1482 1482 1482 1482 1483 1483 1483 1483 1484 1484 1484 1484 1484 1484 1484 1484 1484 1483 1483 1483 1483 1484 1484 1484 1484 1485 1485 1485 1485 1485 1485 1485 1485